This demonstration page uses our WeatherBlox Daily Observations layout. Learn more.

39.01783, -85.05884

Hourly Observations for September 20, 2019

Temp ( °F °C ) Dew Point ( °F °C ) Humidity (%) Winds ( mph kmh ) Pressure ( in mb ) Visibility ( mi km ) Precip ( " mm )
12:52 am 00:52 Clear 70 21.1 63 17.2 79 79 SSE 7 11 30.06 1018 10 16.09344 0 0
1:52 am 01:52 Clear 70 21.1 63 17.2 79 79 S 5 7 30.06 1018 10 16.09344 0 0
2:52 am 02:52 Mostly Clear 70 21.1 63 17.2 79 79 S 8 13 30.09 1019 10 16.09344 0 0
3:52 am 03:52 Partly Cloudy 72 22.2 63 17.2 73 73 SSW 7 11 30.09 1019 10 16.09344 0 0
4:52 am 04:52 Mostly Clear 69 20.6 63 17.2 81 81 S 6 9 30.09 1019 10 16.09344 0 0
5:52 am 05:52 Mostly Clear 69 20.6 63 17.2 81 81 SSW 8 13 30.09 1019 10 16.09344 0 0
6:52 am 06:52 Partly Cloudy 69 20.6 62 16.7 78 78 S 8 13 30.12 1020 10 16.09344 0 0
7:52 am 07:52 Partly Cloudy 69 20.6 62 16.7 78 78 SSW 9 15 30.12 1020 10 16.09344 0 0
8:52 am 08:52 Partly Cloudy 72 22.2 62 16.7 71 71 SSW 12 19 30.15 1021 10 16.09344 0 0
9:52 am 09:52 Partly Cloudy 75 23.9 63 17.2 66 66 SW 13 20 30.15 1021 10 16.09344 0 0
10:52 am 10:52 Mostly Cloudy 78 25.6 63 17.2 60 60 SSW 12 19 30.15 1021 10 16.09344 0 0
11:52 am 11:52 Mostly Cloudy 80 26.7 64 17.8 58 58 SW 9 15 30.15 1021 10 16.09344 0 0
12:52 pm 12:52 Mostly Cloudy 82 27.8 64 17.8 55 55 WSW 8 13 30.15 1021 10 16.09344 0 0
1:52 pm 13:52 Partly Cloudy 84 28.9 65 18.3 53 53 SW 12 19 30.12 1020 10 16.09344 0 0
2:52 pm 14:52 Partly Cloudy 86 30 65 18.3 49 49 SW 9 15 30.12 1020 10 16.09344 0 0
3:52 pm 15:52 Partly Cloudy 86 30 65 18.3 49 49 WSW 8 13 30.09 1019 10 16.09344 0 0
4:52 pm 16:52 Partly Cloudy 86 30 64 17.8 48 48 SW 6 9 30.09 1019 10 16.09344 0 0
5:52 pm 17:52 Partly Cloudy 85 29.4 64 17.8 50 50 S 8 13 30.09 1019 10 16.09344 0 0
6:52 pm 18:52 Partly Cloudy 82 27.8 62 16.7 51 51 SSW 10 17 30.09 1019 10 16.09344 0 0
7:52 pm 19:52 Mostly Cloudy 79 26.1 63 17.2 58 58 SSW 6 9 30.12 1020 10 16.09344 0 0
8:52 pm 20:52 Partly Cloudy 77 25 64 17.8 64 64 SSW 7 11 30.12 1020 10 16.09344 0 0
9:52 pm 21:52 Partly Cloudy 75 23.9 65 18.3 71 71 S 7 11 30.15 1021 10 16.09344 0 0
10:52 pm 22:52 Partly Cloudy 75 23.9 65 18.3 71 71 S 6 9 30.15 1021 10 16.09344 0 0
11:52 pm 23:52 Partly Cloudy 74 23.3 65 18.3 74 74 SSW 8 13 30.15 1021 10 16.09344 0 0

Powered by AerisWeather